DELTA 1 DEB, 7184

Orbit data source: Space-Track

DELTA 1 DEB, 7184 is space debris in SSO originally from a launch on Tue, 06 Nov 1973 UTC launched from the Air Force Western Test Range (AFWTR). Debris objects in space refer to the collection of defunct objects orbiting the Earth. Examples of debris include non-operational satellites, rocket bodies, and fragments generated from explosions, collisions, or faulty payload assembly.

Loading next visibility...
Identifier
7184, 1973-086EV
Orbit
SSO
Country
Flag of USUS
Related business
Manufacturer
Unknown
Mission
Spacecraft
Bus & Motor
Unknown
Mass
Unknown
Launch date (UTC)
1973-11-06 (52 years ago)
Launch vehicle
Unknown
Launch site
Air Force Western Test Range (AFWTR)
Object type
Payload
Rocket body
Debris
Shape & HBR
Unknown shape, 0.1 m
Radar Cross Section
Small (<0.1 m²)

Expand to show TLE details & history
Last TLE update: 6 hours ago

TLE from 6 hours ago
0 DELTA 1 DEB
1  7184U 73086EV  25355.41612458 -.00000059  00000-0 -78446-5 0  9995
2  7184 102.2825 307.7946 0190168 205.9969 276.5690 13.04922082460144
Epoch: 2025-12-21T09:59Z
TLE epoch observation values (Epoch: 2025-12-21T09:59:13.163Z)
Latitude
57.53447°
Longitude
-92.33342°
Altitude
1,238.48 km
Speed
7.248 km/s
True Right ascension
09h 50m 48s
True Declination
57° 23' 18"
Sunlit
Object was in full shadow at epoch
Visualization orbit readout
Latitude
Unknown
Longitude
Unknown
Altitude
Unknown
Speed
Unknown
Apparent Right ascension
Unknown
Apparent Declination
Unknown
Sunlit
N/A
Visualization observer readout
Local Sidereal Time
14:40:50
Azimuth
Unknown
Elevation
Unknown
Doppler factor
Unknown
Orbital elements
Apogee altitude
1,385.252 km
Perigee altitude
1,095.493 km
Semi-major axis
7,618.51 km
Eccentricity
0.01902
Inclination
102.2825°
RAAN
307.7946°
Arg. of periapsis
205.9969°
True anomaly
274.39876°
Mean anomaly
276.569°
Eccentric anomaly
275.48441°
Mean motion
3.26391 °/min
Orbital period
110.3 mins
BSTAR
-0.0000078446
Loading maneuver chart data...
Computing Atmospheric mass density...
Loading historical data...
Loading historical data...
Loading historical data...
Loading historical data...
Loading historical data...
Loading historical data...
Loading historical data...

Documentation

Showing up to 5 results
|